This demonstration page uses our WeatherBlox Daily Observations layout. Learn more.

Left ArrowRight Arrow

44.8408, -93.29828

Hourly Observations for February 8, 2019

Temp ( °F °C ) Dew Point ( °F °C ) Humidity (%) Winds ( mph kmh ) Pressure ( in mb ) Visibility ( mi km ) Precip ( " mm )
12:53 am 00:53 Mostly Clear -6 -21.1 -12 -24.4 75 75 W 16 26 30.23 1024 10 16 0.00 0.00
1:53 am 01:53 Clear -7 -21.7 -13 -25 75 75 W 16 26 30.27 1025 10 16 0.00 0.00
2:53 am 02:53 Clear -8 -22.2 -13 -25 78 78 W 13 20 30.32 1027 10 16 0.00 0.00
3:53 am 03:53 Clear -9 -22.8 -14 -25.6 78 78 WNW 14 22 30.35 1028 10 16 0.00 0.00
4:53 am 04:53 Clear -9 -22.8 -15 -26.1 75 75 W 12 19 30.38 1029 10 16 0.00 0.00
5:53 am 05:53 Clear -10 -23.3 -15 -26.1 78 78 WNW 12 19 30.42 1030 10 16 0.00 0.00
6:53 am 06:53 Clear -10 -23.3 -16 -26.7 74 74 W 13 20 30.46 1031 10 16 0.00 0.00
7:53 am 07:53 Sunny -10 -23.3 -16 -26.7 74 74 W 15 24 30.51 1033 10 16 0.00 0.00
8:53 am 08:53 Sunny -10 -23.3 -16 -26.7 74 74 W 16 26 30.55 1034 10 16 0.00 0.00
9:53 am 09:53 Sunny -7 -21.7 -15 -26.1 68 68 W 15 24 30.58 1036 10 16 0.00 0.00
10:53 am 10:53 Sunny -6 -21.1 -14 -25.6 67 67 W 12 19 30.62 1037 10 16 0.00 0.00
11:53 am 11:53 Sunny -4 -20 -12 -24.4 68 68 W 10 17 30.64 1038 10 16 0.00 0.00
12:53 pm 12:53 Sunny -1 -18.3 -11 -23.9 62 62 W 13 20 30.66 1038 10 16 0.00 0.00
1:53 pm 13:53 Sunny 0 -17.8 -10 -23.3 62 62 W 12 19 30.67 1039 10 16 0.00 0.00
2:53 pm 14:53 Sunny -1 -18.3 -10 -23.3 65 65 WSW 12 19 30.70 1040 10 16 0.00 0.00
3:53 pm 15:53 Sunny -1 -18.3 -10 -23.3 65 65 W 13 20 30.71 1040 10 16 0.00 0.00
4:53 pm 16:53 Sunny -2 -18.9 -11 -23.9 65 65 W 12 19 30.73 1041 10 16 0.00 0.00
5:53 pm 17:53 Clear -4 -20 -12 -24.4 68 68 W 10 17 30.76 1042 10 16 0.00 0.00
6:53 pm 18:53 Clear -6 -21.1 -12 -24.4 75 75 W 7 11 30.79 1043 10 16 0.00 0.00
7:53 pm 19:53 Clear -7 -21.7 -13 -25 75 75 W 7 11 30.81 1043 10 16 0.00 0.00
8:53 pm 20:53 Clear -8 -22.2 -13 -25 78 78 SW 6 9 30.83 1044 10 16 0.00 0.00
9:53 pm 21:53 Clear -9 -22.8 -13 -25 82 82 WSW 5 7 30.84 1045 10 16 0.00 0.00
10:53 pm 22:53 Clear -10 -23.3 -14 -25.6 81 81 WSW 5 7 30.89 1046 10 16 0.00 0.00
11:53 pm 23:53 Clear -11 -23.9 -14 -25.6 86 86 SW 6 9 30.92 1047 10 16 0.00 0.00

Powered by AerisWeather